sat.trackr.live / text

‹ back to catalog

ONEWEB-0057

NORAD 45160 · 2020-008AF

PAYLOAD ACTIVE UNKNOWN

§ Identity

Operator
Country
UK
Launch date
2020-02-06
Launch site
TYMSC
Launch vehicle
Mass (kg)
RCS (m²)

Purposes: comms

External: N2YO · Heavens-Above · Gunter

§ Orbital elements

Epoch: 2026-09-20T01:26:15.005760Z

Period
109.89 min
Inclination
87.8908°
Eccentricity
0.0002141
Mean motion
13.10374023 rev/d
Perigee alt
1,220.1 km
Apogee alt
1,223.3 km
Semi-major
7,599.8 km
B*
1.4636e-3
RAAN
17.3893°
Arg perigee
110.7008°
Mean anomaly
249.4349°
Rev number
32,077

§ Raw data

ONEWEB-00571 45160U 20008AF  26263.05989590  .00000524  00000+0  14636-2 0  99922 45160  87.8908  17.3893 0002141 110.7008 249.4349 13.10374023320772

JSON: /api/v1/satellites/45160 · /tle

For live sub-satellite position, see the globe view (requires WebGL).

§ Visibility from observer

Set your observer location to see the next 7 days of passes ≥ 10°. The values pass through the URL so the page stays shareable.

No JS? Fill the form by hand. The geolocation button needs JavaScript.